• In Hungary
  • List of Countries
  • For 7 days
  • Water Temperature
  • Satellite Maps
  • Weather Map
  • News
  • Weather Widgets
  • user-avatar
    Login

    Hourly Weather Shuganka

    Today, 26 September, Wednesday

    Time Temperature Precipitation Wind Pressure Humidity
    00:00 +14°C° 0.1 mm 6 mps 747 mmHg 72%
    01:00 +13°C° 0.1 mm 6 mps 747 mmHg 71%
    02:00 +13°C° 0 mm 6 mps 747 mmHg 70%
    03:00 +13°C° 0 mm 6 mps 747 mmHg 69%
    04:00 +13°C° 0 mm 6 mps 747 mmHg 68%
    05:00 +13°C° 0 mm 5 mps 747 mmHg 69%
    06:00 +13°C° 0 mm 5 mps 748 mmHg 69%
    07:00 +13°C° 0 mm 5 mps 748 mmHg 70%
    08:00 +13°C° 0.1 mm 5 mps 748 mmHg 72%
    09:00 +13°C° 0.1 mm 5 mps 749 mmHg 74%
    10:00 +13°C° 0.1 mm 5 mps 749 mmHg 76%
    11:00 +12°C° 0.7 mm 4 mps 749 mmHg 77%
    12:00 +12°C° 0.7 mm 4 mps 750 mmHg 78%
    13:00 +12°C° 0.7 mm 4 mps 750 mmHg 78%
    14:00 +12°C° 0.1 mm 4 mps 750 mmHg 75%
    15:00 +13°C° 0.1 mm 4 mps 751 mmHg 72%
    16:00 +13°C° 0.1 mm 4 mps 751 mmHg 69%
    17:00 +12°C° 0 mm 4 mps 751 mmHg 72%
    18:00 +11°C° 0 mm 3 mps 751 mmHg 75%
    19:00 +11°C° 0 mm 3 mps 751 mmHg 78%
    20:00 +10°C° 0 mm 3 mps 752 mmHg 78%
    21:00 +10°C° 0 mm 2 mps 752 mmHg 79%
    22:00 +10°C° 0 mm 2 mps 752 mmHg 79%
    23:00 +9°C° 0 mm 2 mps 752 mmHg 80%

    Tomorrow, 27 September, Thursday

    Time Temperature Precipitation Wind Pressure Humidity
    00:00 +9°C° 0 mm 2 mps 751 mmHg 81%
    01:00 +8°C° 0 mm 2 mps 751 mmHg 81%
    02:00 +8°C° 0 mm 2 mps 751 mmHg 81%
    03:00 +8°C° 0 mm 3 mps 751 mmHg 81%
    04:00 +8°C° 0 mm 3 mps 751 mmHg 81%
    05:00 +7°C° 0 mm 3 mps 751 mmHg 81%
    06:00 +7°C° 0 mm 3 mps 751 mmHg 80%
    07:00 +5°C° 0 mm 4 mps 750 mmHg 80%
    08:00 +6°C° 0 mm 5 mps 750 mmHg 74%
    09:00 +7°C° 0 mm 6 mps 750 mmHg 68%
    10:00 +8°C° 0 mm 7 mps 749 mmHg 62%
    11:00 +8°C° 0 mm 7 mps 749 mmHg 59%
    12:00 +9°C° 0 mm 8 mps 748 mmHg 57%
    13:00 +10°C° 0 mm 8 mps 747 mmHg 55%
    14:00 +10°C° 0 mm 8 mps 747 mmHg 54%
    15:00 +10°C° 0 mm 8 mps 746 mmHg 53%
    16:00 +10°C° 0 mm 8 mps 746 mmHg 52%
    17:00 +9°C° 0.1 mm 8 mps 745 mmHg 55%
    18:00 +8°C° 0.1 mm 7 mps 744 mmHg 57%
    19:00 +8°C° 0.1 mm 7 mps 744 mmHg 60%
    20:00 +6°C° 0.5 mm 8 mps 743 mmHg 65%
    21:00 +5°C° 0.5 mm 8 mps 743 mmHg 70%
    22:00 +5°C° 0.5 mm 9 mps 742 mmHg 75%
    23:00 +5°C° 0.5 mm 8 mps 741 mmHg 78%

    Day after tomorrow, 28 September, Friday

    Time Temperature Precipitation Wind Pressure Humidity
    00:00 +4°C° 0.5 mm 8 mps 741 mmHg 81%
    01:00 +4°C° 0.5 mm 8 mps 740 mmHg 84%
    02:00 +4°C° 0.1 mm 8 mps 741 mmHg 84%
    03:00 +5°C° 0.1 mm 7 mps 741 mmHg 85%
    04:00 +5°C° 0.1 mm 7 mps 741 mmHg 85%
    05:00 +4°C° 0 mm 7 mps 741 mmHg 86%
    06:00 +4°C° 0 mm 7 mps 742 mmHg 86%
    07:00 +3°C° 0 mm 7 mps 742 mmHg 87%
    08:00 +4°C° 0 mm 7 mps 743 mmHg 83%
    09:00 +5°C° 0 mm 8 mps 743 mmHg 79%
    10:00 +6°C° 0 mm 8 mps 744 mmHg 75%
    11:00 +6°C° 0 mm 8 mps 744 mmHg 71%
    12:00 +7°C° 0 mm 8 mps 744 mmHg 67%
    13:00 +9°C° 0 mm 8 mps 744 mmHg 63%
    14:00 +9°C° 0 mm 8 mps 744 mmHg 63%
    15:00 +9°C° 0 mm 7 mps 744 mmHg 63%
    16:00 +9°C° 0 mm 7 mps 744 mmHg 63%
    17:00 +9°C° 0.2 mm 6 mps 744 mmHg 67%
    18:00 +8°C° 0.2 mm 6 mps 744 mmHg 71%
    19:00 +8°C° 0.2 mm 5 mps 743 mmHg 74%
    20:00 +8°C° 0.5 mm 6 mps 743 mmHg 74%
    21:00 +9°C° 0.5 mm 7 mps 742 mmHg 73%
    22:00 +8°C° 0.5 mm 9 mps 741 mmHg 73%
    23:00 +8°C° 0 mm 9 mps 741 mmHg 74%

    29 September, Saturday

    Time Temperature Precipitation Wind Pressure Humidity
    00:00 +8°C° 0 mm 10 mps 740 mmHg 74%
    01:00 +8°C° 0 mm 10 mps 740 mmHg 75%
    02:00 +9°C° 0.2 mm 10 mps 740 mmHg 77%
    03:00 +9°C° 0.2 mm 10 mps 740 mmHg 78%
    04:00 +9°C° 0.2 mm 10 mps 740 mmHg 80%
    05:00 +8°C° 0.2 mm 10 mps 741 mmHg 80%
    06:00 +8°C° 0.2 mm 9 mps 742 mmHg 81%
    07:00 +7°C° 0.2 mm 8 mps 743 mmHg 81%
    08:00 +7°C° 0 mm 8 mps 744 mmHg 77%
    09:00 +7°C° 0 mm 8 mps 745 mmHg 73%
    10:00 +7°C° 0 mm 8 mps 746 mmHg 69%
    11:00 +7°C° 0 mm 8 mps 746 mmHg 65%
    12:00 +7°C° 0 mm 8 mps 747 mmHg 61%
    13:00 +9°C° 0 mm 8 mps 748 mmHg 57%
    14:00 +9°C° 0 mm 7 mps 748 mmHg 56%
    15:00 +9°C° 0 mm 7 mps 749 mmHg 55%
    16:00 +9°C° 0 mm 6 mps 749 mmHg 54%
    17:00 +7°C° 0 mm 5 mps 749 mmHg 58%
    18:00 +6°C° 0 mm 4 mps 750 mmHg 62%
    19:00 +5°C° 0 mm 3 mps 750 mmHg 67%
    20:00 +5°C° 0 mm 3 mps 751 mmHg 68%
    21:00 +4°C° 0 mm 3 mps 751 mmHg 69%
    22:00 +4°C° 0 mm 3 mps 751 mmHg 70%
    23:00 +4°C° 0 mm 3 mps 752 mmHg 70%

    30 September, Sunday

    Time Temperature Precipitation Wind Pressure Humidity
    00:00 +3°C° 0 mm 3 mps 752 mmHg 71%
    01:00 +4°C° 0 mm 2 mps 752 mmHg 71%
    02:00 +4°C° 0 mm 2 mps 752 mmHg 72%
    03:00 +3°C° 0 mm 2 mps 753 mmHg 73%
    04:00 +3°C° 0 mm 2 mps 753 mmHg 74%
    05:00 +3°C° 0 mm 2 mps 753 mmHg 73%
    06:00 +3°C° 0 mm 2 mps 753 mmHg 72%
    07:00 +4°C° 0 mm 2 mps 753 mmHg 71%
    08:00 +3°C° 0 mm 3 mps 753 mmHg 70%
    09:00 +4°C° 0 mm 3 mps 753 mmHg 68%
    10:00 +5°C° 0 mm 3 mps 753 mmHg 67%
    11:00 +5°C° 0 mm 3 mps 753 mmHg 65%
    12:00 +7°C° 0 mm 3 mps 753 mmHg 64%
    13:00 +7°C° 0 mm 3 mps 753 mmHg 63%
    14:00 +7°C° 0 mm 3 mps 753 mmHg 64%
    15:00 +7°C° 0 mm 3 mps 752 mmHg 65%
    16:00 +7°C° 0 mm 3 mps 752 mmHg 66%
    17:00 +7°C° 0.1 mm 3 mps 752 mmHg 69%
    18:00 +5°C° 0.1 mm 3 mps 752 mmHg 73%
    19:00 +5°C° 0.1 mm 3 mps 752 mmHg 77%
    20:00 +4°C° 0 mm 3 mps 753 mmHg 78%
    21:00 +4°C° 0 mm 3 mps 753 mmHg 79%
    22:00 +3°C° 0 mm 3 mps 753 mmHg 80%
    23:00 +3°C° 0 mm 3 mps 753 mmHg 80%

    1 October, Monday

    Time Temperature Precipitation Wind Pressure Humidity
    00:00 +2°C° 0 mm 3 mps 753 mmHg 81%
    01:00 +1°C° 0 mm 3 mps 753 mmHg 82%
    02:00 +1°C° 0 mm 3 mps 753 mmHg 82%
    03:00 0°C° 0 mm 3 mps 753 mmHg 81%
    04:00 0°C° 0 mm 3 mps 753 mmHg 81%
    05:00 -1°C° 0 mm 3 mps 753 mmHg 81%
    06:00 -1°C° 0 mm 3 mps 753 mmHg 80%
    07:00 -1°C° 0 mm 3 mps 754 mmHg 79%
    08:00 0°C° 0 mm 3 mps 754 mmHg 71%
    09:00 +1°C° 0 mm 4 mps 754 mmHg 64%
    10:00 +3°C° 0 mm 4 mps 754 mmHg 56%
    11:00 +4°C° 0 mm 4 mps 754 mmHg 54%
    12:00 +5°C° 0 mm 4 mps 754 mmHg 53%
    13:00 +6°C° 0 mm 5 mps 754 mmHg 51%
    14:00 +7°C° 0 mm 5 mps 754 mmHg 52%
    15:00 +7°C° 0 mm 5 mps 754 mmHg 52%
    16:00 +7°C° 0 mm 4 mps 754 mmHg 53%
    17:00 +6°C° 0 mm 4 mps 754 mmHg 60%
    18:00 +5°C° 0 mm 3 mps 754 mmHg 66%
    19:00 +4°C° 0 mm 3 mps 754 mmHg 73%
    20:00 +4°C° 0 mm 3 mps 754 mmHg 75%
    21:00 +4°C° 0 mm 3 mps 754 mmHg 77%
    22:00 +4°C° 0 mm 3 mps 754 mmHg 79%
    23:00 +4°C° 0 mm 3 mps 754 mmHg 79%
    Show more